sat.trackr.live / text

‹ back to catalog

STARLINK-36284

NORAD 67194 · 2025-304C

PAYLOAD ACTIVE UNKNOWN

§ Identity

Operator
Country
US
Launch date
2025-12-17
Launch site
AFWTR
Launch vehicle
Mass (kg)
RCS (m²)

Purposes: comms

External: N2YO · Heavens-Above · Gunter

§ Orbital elements

Epoch: 2026-09-19T18:30:39.458592Z

Period
96.11 min
Inclination
70.0016°
Eccentricity
0.0002640
Mean motion
14.98338578 rev/d
Perigee alt
570.2 km
Apogee alt
573.9 km
Semi-major
6,950.2 km
B*
2.0872e-4
RAAN
45.2130°
Arg perigee
275.0509°
Mean anomaly
85.0349°
Rev number
4,295

§ Raw data

STARLINK-362841 67194U 25304C   26262.77129003  .00002399  00000+0  20872-3 0  99922 67194  70.0016  45.2130 0002640 275.0509  85.0349 14.98338578 42953

JSON: /api/v1/satellites/67194 · /tle

For live sub-satellite position, see the globe view (requires WebGL).

§ Visibility from observer

Set your observer location to see the next 7 days of passes ≥ 10°. The values pass through the URL so the page stays shareable.

No JS? Fill the form by hand. The geolocation button needs JavaScript.